Showing default

JILIN-01 GAOFEN 3D 31, 52448

Orbit data source: Space-Track

JILIN-01 GAOFEN 3D 31, 52448 is a payload satellite owned by Changguang WJ (CN) in SSO that was launched on Thu, 05 May 2022 UTC via a CHANG ZHENG 2D launch vehicle from the Taiyaun Space Center, China (TSC). Payload-class satellites include a variety of spacecraft equipped with specific instruments for various scientific and technological missions. These include communications satellites like Starlink; space stations such as the ISS; scientific satellites like the Hubble; Earth observation satellites from companies like Planet Labs, Umbra, and HawkEye 360; GPS; miniature CubeSats for education and research; and military/defense satellites.

Loading next visibility...
Identifier
52448, 2022-048F
Orbit
SSO
Country
Flag of CNCN / PRC
Related business
Manufacturer
Changguang WJ
Mission
Operational Commercial Imaging
Bus & Motor
JL-1, Unknown motor
Mass
42 kg wet, 42 kg dry
Launch date (UTC)
2022-05-05 (4 years ago)
Launch vehicle
CHANG ZHENG 2D
Launch site
Taiyaun Space Center, China (TSC)
Object type
Payload
Rocket body
Debris
Shape & HBR
Box + 2 Pan, 0.8 m
Radar Cross Section
2.000 m², Medium (>0.1 m² and < 1m²)

Expand to show TLE details & history
Last TLE update: 9 hours ago

TLE from 9 hours ago
0 JILIN-01 GAOFEN 3D 31
1 52448U 22048F   25347.00289718  .00062792  00000-0  11205-2 0  9992
2 52448  97.5671  84.2760 0003503  57.0294 303.1293 15.49852619200503
Epoch: 2025-12-13T00:04Z
TLE epoch observation values (Epoch: 2025-12-13T00:04:10.316Z)
Latitude
-0.00003°
Longitude
1.29661°
Altitude
418.982 km
Speed
7.66 km/s
True Right ascension
05h 37m 06s
True Declination
0° 00' 00"
Sunlit
Object was in full shadow at epoch
Visualization orbit readout
Latitude
Unknown
Longitude
Unknown
Altitude
Unknown
Speed
Unknown
Apparent Right ascension
Unknown
Apparent Declination
Unknown
Sunlit
N/A
Visualization observer readout
Local Sidereal Time
07:31:24
Azimuth
Unknown
Elevation
Unknown
Doppler factor
Unknown
Orbital elements
Apogee altitude
416.469 km
Perigee altitude
411.711 km
Semi-major axis
6,792.227 km
Eccentricity
0.00035
Inclination
97.5671°
RAAN
84.276°
Arg. of periapsis
57.0294°
True anomaly
303.09568°
Mean anomaly
303.1293°
Eccentric anomaly
303.11249°
Mean motion
3.87726 °/min
Orbital period
92.85 mins
BSTAR
0.0011205
Loading maneuver chart data...
Computing Atmospheric mass density...
Loading historical data...
Loading historical data...
Loading historical data...
Loading historical data...
Loading historical data...
Loading historical data...
Loading historical data...

Documentation

Showing up to 5 results
|